www.pogodaiklimat.ru

Погода и климат >> Архив погоды >> Индонезия >> Сабанг


ПОГОДА в Сабанге

  • Прогноз погоды в Сабанге
  • Монитор погоды в Сабанге

АРХИВ ПОГОДЫ в Сабанге

Время (UTC), дата Ветер
(напр.,м/с)
 
Видим.   Явления Облачность Т
(С)
Тd
(С)
f
(%)
Тe
(С)
Тes
(С)
Комфортность P
(гПа)
Po
(гПа)
Тmin
(С)
Tmax
(С)
R
(мм)
R24
(мм)
S
(см)
03 20.06 ЮЗ 7 10 км 6/4 600 м
[Cu med, cong Ac trans Ci sp]
+29.6 +22.9 67 +39 +41 очень
душно
1011.5 996.9
06 20.06 ЮЗ 6 10 км 8/4 600 м
[Cu med, cong Ac trans Ci sp]
+32.4 +23.2 58 +43 +46 опасность
перегрева
1010.6 996.0
09 20.06 ЮЗ 7 10 км 8/4 600 м
[Cu med, cong Ac trans Ci sp]
+29.8 +23.7 70 +41 +42 опасность
перегрева
1009.6 995.0
12 20.06 З 8 5000 м мгла 9/5 600 м
[Sc Ac As Ci sp]
+27.4 +23.9 81 +38 +38 очень
душно
1009.9 995.3 +32.4
15 20.06 ЮЗ 6 5000 м мгла 9/5 600 м
[Sc Ac As Ci sp]
+26.4 +23.7 85 +36 +36 очень
душно
1011.6 997.1
18 20.06 Ю 7 5000 м мгла 9/5 600 м
[Sc Ac As Ci sp]
+26.0 +23.6 87 +35 +35 очень
душно
1011.3 996.7
21 20.06 ЮЗ 6 5000 м мгла 9/5 600 м
[Sc Ac As Ci sp]
+25.2 +23.4 90 +34 +34 очень
душно
1009.8 995.2
00 21.06 ЮЗ 6 6000 м 9/5 600 м
[Sc Ac As Ci sp]
+27.6 +23.2 77 +37 +37 очень
душно
1010.2 995.6 +25.0
03 21.06 З 8 8000 м 8/4 600 м
[Sc Ac trans Ci sp]
+31.6 +23.2 61 +42 +43 опасность
перегрева
1010.4 995.9
06 21.06 З 8 10 км 8/4 600 м
[Cu med, cong Ac trans Ci sp]
+32.6 +23.1 57 +43 +44 опасность
перегрева
1009.5 994.9
09 21.06 ЮЗ 8 10 км 9/5 600 м
[Cu med, cong Ac trans Ci sp]
+28.4 +21.5 66 +36 +37 очень
душно
1008.9 994.6
12 21.06 З 11 8000 м 9/5 600 м
[Sc Ac As Ci sp]
+28.0 +23.9 78 +39 +39 очень
душно
1009.2 994.7 +33.2
15 21.06 З 7 8000 м 9/5 600 м
[Cu med, cong Ac trans Ci sp]
+26.4 +23.7 85 +36 +36 очень
душно
1011.1 996.5
18 21.06 ЮЗ 6 8000 м 9/5 600 м
[Cu med, cong Ac trans Ci sp]
+27.2 +24.0 83 +38 +38 очень
душно
1009.6 995.0
21 21.06 З 7 8000 м 9/5 600 м
[Cu med, cong Ac trans Ci sp]
+28.4 +23.7 76 +39 +39 очень
душно
1008.4 993.8
00 22.06 ЮЗ 5 8000 м 8/4 600 м
[Sc Ac trans Ci sp]
+28.2 +23.5 76 +38 +39 очень
душно
1009.3 994.7 +25.4
03 22.06 ЮЗ 7 10 км 8/4 600 м
[Cu med, cong Ac trans Ci sp]
+30.8 +22.9 63 +41 +42 опасность
перегрева
1010.1 995.5
06 22.06 ЮЗ 8 10 км 8/4 600 м
[Cu med, cong Ac trans Ci sp]
+32.2 +22.9 58 +42 +44 опасность
перегрева
1009.0 994.4
09 22.06 З 9 3000 м дождь 10/6 540 м
[Sc Ac As Ci sp]
+25.2 +24.2 94 +35 +35 очень
душно
1008.5 993.9 2
12 22.06 ЮЗ 6 3000 м дождь 10/6 540 м
[Sc As op Ci sp]
+24.6 +23.0 91 +33 +33 очень
душно
1009.4 994.9 +32.4 11
15 22.06 ЮЗ 8 4000 м мгла {дождь} 10/5 570 м
[Sc Ac As Ci sp]
+26.2 +22.6 81 +35 +35 очень
душно
1010.2 995.6 1
18 22.06 ЮЗ 6 4000 м мгла {дождь} 10/5 570 м
[Sc Ac As Ci sp]
+26.0 +22.4 81 +34 +34 очень
душно
1009.4 994.8 1
21 22.06 З 6 4000 м мгла 10/5 570 м
[Sc Ac As Ci sp]
+25.6 +22.3 82 +33 +33 очень
душно
1008.0 993.5
00 23.06 ЮЗ 7 5000 м мгла {дождь} 9/5 570 м
[Sc Ac As Ci sp]
+27.2 +23.7 81 +37 +37 очень
душно
1008.6 994.0 +24.4 14
03 23.06 СЗ 9 2000 м слаб. дождь 10/5 480 м
[Sc Ac As Ci sp]
+24.8 +23.2 91 +33 +33 очень
душно
1010.8 996.2 0.3
06 23.06 З 6 10 км {дождь} 9/5 570 м
[Sc Ac As Ci sp]
+26.8 +23.1 80 +36 +38 очень
душно
1009.4 994.8 6
09 23.06 СЗ 9 4000 м слаб. дождь 9/5 570 м
[Sc Ac As Ci sp]
+25.0 +23.2 90 +33 +34 очень
душно
1008.5 993.9 0.2
12 23.06 З 3 6000 м {дождь} 10/5 570 м
[Sc Ac As Ci sp]
+24.8 +22.0 84 +32 +32 очень
душно
1008.6 994.0 +33.2 0.2
15 23.06 ЮЗ 5 6000 м 10/5 570 м
[Sc Ac As Ci sp]
+26.0 +22.7 82 +34 +34 очень
душно
1010.3 995.8
18 23.06 З 9 6000 м 10/5 570 м
[Sc Ac As Ci sp]
+26.6 +22.1 76 +34 +34 очень
душно
1009.9 995.4
21 23.06 ЮЗ 5 6000 м 10/5 570 м
[Sc Ac As Ci sp]
+26.6 +21.1 72 +34 +34 очень
душно
1008.3 993.8
00 24.06 ЮЗ 6 7000 м 10/5 570 м
[Sc Ac As Ci sp]
+27.2 +22.4 75 +36 +36 очень
душно
1009.5 995.0 +23.8 6
03 24.06 ЮЗ 7 10 км 10/5 600 м
[Sc Ac As Ci sp]
+30.4 +21.8 60 +39 +40 очень
душно
1010.8 996.2
06 24.06 ЮЗ 10 12 км 9/5 600 м
[Sc Ac trans Ci sp]
+31.7 +22.2 57 +41 +41 опасность
перегрева
1009.7 995.1
09 24.06 ЮЗ 9 12 км 9/5 600 м
[Sc Ac trans Ci sp]
+31.6 +22.9 60 +42 +42 опасность
перегрева
1008.2 993.7
12 24.06 ЮЗ 10 8000 м 9/5 600 м
[Sc Ac trans Ci sp]
+27.4 +23.0 77 +37 +37 очень
душно
1008.9 994.3 +32.6
15 24.06 ЮЗ 7 6000 м 9/5 600 м
[Sc Ac trans Ci sp]
+28.3 +21.2 65 +36 +36 очень
душно
1011.4 996.8
18 24.06 ЮЗ 7 6000 м 9/5 600 м
[Sc Ac trans Ci sp]
+28.3 +21.2 65 +36 +36 очень
душно
1010.7 996.1
21 24.06 ЮЗ 6 6000 м 9/5 600 м
[Sc Ac trans Ci sp]
+28.0 +21.1 66 +35 +35 очень
душно
1010.1 995.5
00 25.06 З 10 8000 м 9/5 600 м
[Sc Ac As Ci sp]
+26.0 +23.0 84 +35 +35 очень
душно
1012.0 997.4 +25.6
03 25.06 ЮЗ 7 5000 м слаб. дождь 10/5 570 м
[Sc Ac As Ci sp]
+25.0 +23.2 90 +33 +34 очень
душно
1013.3 998.7 2
06 25.06 ЮЗ 10 9000 м 9/5 570 м
[Sc Ac As Ci sp]
+28.7 +23.0 71 +38 +39 очень
душно
1012.0 997.4 0.2
09 25.06 ЮЗ 7 10 км {дождь} 9/5 600 м
[Sc Ac As Ci sp]
+27.6 +24.1 81 +38 +39 очень
душно
1010.8 996.2 0.5
12 25.06 ЮЗ 7 6000 м {дождь} 10/5 540 м
[Sc Ac As Ci sp]
+25.4 +22.7 85 +33 +33 очень
душно
1011.0 996.4 +32.4 5
15 25.06 З 7 6000 м 10/5 570 м
[Sc Ac As Ci sp]
+26.3 +23.2 83 +35 +35 очень
душно
1012.0 997.5
18 25.06 ЮЗ 8 6000 м 10/5 570 м
[Sc Ac As Ci sp]
+26.7 +23.0 80 +36 +36 очень
душно
1011.4 996.9
21 25.06 ЮЗ 5 6000 м 10/5 570 м
[Sc Ac As Ci sp]
+27.7 +21.2 68 +35 +35 очень
душно
1010.2 995.7
00 26.06 ЮЗ 3 8000 м 10/5 600 м
[Sc Ac As Ci sp]
+27.0 +24.0 84 +37 +38 очень
душно
1011.2 996.7 +24.2 7
03 26.06 ЮЗ 5 10 км 9/5 600 м
[Sc Ac As Ci sp]
+30.4 +24.1 69 +42 +44 опасность
перегрева
1013.3 998.7
06 26.06 ЮЗ 6 10 км 8/4 600 м
[Cu med, cong Ac trans Ci sp]
+32.0 +23.7 62 +43 +46 опасность
перегрева
1011.9 997.4
09 26.06 ЮЗ 6 10 км 8/4 600 м
[Sc Ac As Ci sp]
+31.6 +22.9 60 +42 +43 опасность
перегрева
1009.3 994.8
12 26.06 ЮЗ 6 8000 м 8/4 600 м
[Sc Ac As Ci sp]
+29.2 +22.3 66 +38 +38 очень
душно
1010.6 996.1 +32.4
15 26.06 ЮЗ 5 8000 м 8/4 600 м
[Sc Ac As Ci sp]
+28.2 +22.3 70 +37 +37 очень
душно
1012.2 997.6
18 26.06 ЮЗ 5 7000 м 8/4 600 м
[Sc Ac As Ci sp]
+27.4 +22.3 74 +36 +36 очень
душно
1011.9 997.3

 

Местоположение метеостанции Сабанг (Индонезия): широта 5.87 долгота 95.32 высота над уровнем моря 126 м.

В архиве по умолчанию представлена погода в Сабанге за последнюю неделю. Архивные данные за месяц целиком и за предыдущие месяцы, начиная с января 2011 года, Вы можете получить, выбрав интересующий диапазон дат из раскрывающегося списка и нажав кнопку "Ввод!".


*Определитесь, кто Вы:
робот инопланетянин человек

Внимание! Время в таблицах - всемирное. Для получения местного времени необходимо прибавить поправку, которая равна 7 ч.

Смотрите также архив погоды в соседних городах и на ближайших метеорологических станциях:

Погода в Банда-Ачехе (Индонезия) (40 км)
Погода в Меулабохе (Индонезия) (201 км)
Погода в Лхоксёмаве (Индонезия) (220 км)
Погода в Нанкаури (Андаманские и Никобарские острова, Индия) (307 км)
Погода на Пхукете (Таиланд) (407 км)
Погода в Пхукет аэропорту (Таиланд) (416 км)
Погода в Белаване (Индонезия) (440 км)
Погода в Такуа Па (Таиланд) (450 км)
Погода на Ко Ланта (Таиланд) (452 км)
Погода в Медан Полония (Индонезия) (452 км)

Пояснения к столбцам:

Ветер - указаны скорость ветра в м/с - средняя за 10 мин, порывы в срок и между сроками (в фигурных скобках) и направление, откуда дует ветер: С - северный, СВ - северо-восточный, В - восточный, ЮВ - юго-восточный, Ю - южный, ЮЗ - юго-западный, З - западный, СЗ - северо-западный.
Видимость - горизонтальная дальность видимости в метрах или километрах. При видимости от 1 до 10 км при отсутствии осадков обычно наблюдается дымка, при ухудшении видимости до 1 км и менее - туман. В сухую погоду видимость может ухудшаться дымом, пылью или мглою.
Явления - указаны атмосферные явления, наблюдавшиеся в срок или в последний час перед сроком; фигурными скобками обозначены явления, наблюдавшиеся между сроками (за 1-3 часа до срока); квадратными скобками обозначены град или гололедные отложения с указанием их диаметра в мм.
Облачность - указаны через наклонную черту общая и нижняя облачность в баллах и высота нижней границы облаков в метрах; квадратными скобками обозначены формы облаков: Ci - перистые, Cs - перисто-слоистые, Cc - перисто-кучевые, Ac - высококучевые, As - высокослоистые, Sc - слоисто-кучевые, Ns - слоисто-дождевые, Cu - кучевые, Cb - кучево-дождевые. Подробнее классификацию облаков см. в Атласе облаков (PDF).
T - Температура воздуха - температура, измеренная на высоте 2 м над землей.
Td - Температура точки росы - температура, при понижении до которой содержащийся в воздухе водяной пар достигнет насыщения.
f - Относительная влажность воздуха - влажноcть воздуха, измеренная на высоте 2 м над землей.
Te - Эффективная температура - температура, которую ощущает одетый по сезону человек в тени. Характеристика душности погоды. При расчете учитывается влияние влажности воздуха и скорости ветра на теплоощущения человека.
Tes - Эффективная температура на солнце - температура, которую ощущает человек, с поправкой на солнечный нагрев. Характеристика знойности погоды. Зависит от высоты солнца над горизонтом, облачности и скорости ветра. Ночью, в пасмурную погоду, а также при ветре 12 м/с и более поправка равна нулю.
P - Атмосферное давление - приведенное к уровню моря атмосферное давление.
Po - Атмосферное давление - измеренное на уровне метеостанции атмосферное давление.
Tmin - Минимальная температура - минимум температуры воздуха на высоте 2 м над землей.
Tmax - Максимальная температура - максимум температуры воздуха на высоте 2 м над землей.
R - Количество осадков - Количество выпавших осадков за период времени, мм. При наведении курсора мыши на число - период времени, за который выпало указанное количество осадков.
R24 - Количество осадков - Количество выпавших осадков за 24 часа, мм.
S - Снежный покров - Высота снежного покрова, см. При наведении курсора мыши на число - состояние снежного покрова и степень покрытия местности в баллах.